"Pseudo-MPEC" for P221FaS

Created 2024 Nov 18 11:31:04 UT using Find_Orb

Click here for an explanation of pseudo-MPECs

 
 Astrometry: 
     P221FaS* C2024 11 06.45174302 01 11.386+24 34 09.38   ~B6HV 21.48wXNEOCPF52
     P221FaS  C2024 11 06.46381002 01 16.428+24 33 11.02   ~B6HV 21.22wXNEOCPF52

Station data:
(F52) Pan-STARRS 2, Haleakala  (N20.707382 W156.255910)  US/Hawaii.
   Observers J. Bulger, T. Dukes, T. Lowe, A. Schultz, M. Willman. Measurers
   K. Chambers, S. Chastel, T. de Boer, L. Denneau, J. Fairlamb, H.
   Flewelling, M. Huber, C.-C. Lin, E. Magnier, Y. Ramanjooloo, R. Wainscoat,
   R. Weryk. 1.8-m Ritchey-Chrétien + CCD.

Orbital elements:  P221FaS
   Perihelion 2024 Nov 25.14961 +/- 37 TT =  3:35:26 (JD 2460639.64961)
Epoch 2024 Nov  6.0 TT = JDT 2460620.5   Earth MOID: 0.0688      AutoNEOCP
M 351.64862383 +/- 18               (J2000 ecliptic)
n   0.43611197 +/- 0.308            Peri.  194.25140 +/- 60
a   1.72214893 +/- 0.812            Node   229.19761 +/- 60
e   0.3888447 +/- 0.246             Incl.    8.82852 +/- 4.9
P   2.260/825.460d         H 25.77  G  0.15   U 12.0  SR
q 1.05250031 +/- 0.199    Q 2.39179755 +/- 41.2
From 2 observations 2024 Nov. 6 (17.4 min); mean residual 0".01
Residuals in arcseconds: 
241106 F52  .01-  .00     241106 F52  .01-  .00     

Ephemerides (geocentric):
Date (UTC) HH   RA             Dec           delta  r     elong  mag " sig PA
---- --------  ------------   ------------  ------ ------ -----  --- --------
2024 11 18 12  03 47 04.712   +02 42 55.65  .06917 1.0548 163.2 20.9  57d  72
2024 11 18 13  03 47 27.228   +02 37 48.89  .06919 1.0548 163.1 21.0  57d  72
2024 11 18 14  03 47 49.730   +02 32 42.31  .06920 1.0547 163.0 21.0  57d  72
2024 11 18 15  03 48 12.218   +02 27 35.90  .06922 1.0547 162.9 21.0  57d  72
2024 11 18 16  03 48 34.693   +02 22 29.68  .06923 1.0547 162.8 21.0  57d  72
2024 11 18 17  03 48 57.153   +02 17 23.65  .06925 1.0546 162.7 21.0  57d  72
2024 11 18 18  03 49 19.600   +02 12 17.81  .06926 1.0546 162.6 21.0  57d  72
2024 11 18 19  03 49 42.032   +02 07 12.18  .06928 1.0546 162.5 21.0  57d  72
2024 11 18 20  03 50 04.451   +02 02 06.74  .06930 1.0546 162.4 21.0  57d  72
2024 11 18 21  03 50 26.854   +01 57 01.51  .06931 1.0545 162.3 21.0  57d  72
2024 11 18 22  03 50 49.243   +01 51 56.50  .06933 1.0545 162.2 21.0  57d  72
2024 11 18 23  03 51 11.617   +01 46 51.70  .06935 1.0545 162.1 21.0  57d  72
2024 11 19 00  03 51 33.975   +01 41 47.12  .06937 1.0544 162.0 21.0  58d  72
2024 11 19 01  03 51 56.319   +01 36 42.77  .06938 1.0544 161.8 21.0  58d  72
2024 11 19 02  03 52 18.647   +01 31 38.64  .06940 1.0544 161.7 21.0  58d  72
2024 11 19 03  03 52 40.960   +01 26 34.76  .06942 1.0544 161.6 21.0  58d  72
2024 11 19 04  03 53 03.257   +01 21 31.11  .06944 1.0543 161.5 21.0  58d  72
2024 11 19 05  03 53 25.539   +01 16 27.70  .06946 1.0543 161.4 21.0  58d  72
2024 11 19 06  03 53 47.804   +01 11 24.54  .06948 1.0543 161.3 21.0  58d  72
2024 11 19 07  03 54 10.053   +01 06 21.63  .06950 1.0543 161.2 21.0  58d  72
2024 11 19 08  03 54 32.286   +01 01 18.98  .06953 1.0542 161.1 21.0  58d  72
2024 11 19 09  03 54 54.502   +00 56 16.59  .06955 1.0542 161.0 21.0  58d  72
2024 11 19 10  03 55 16.702   +00 51 14.47  .06957 1.0542 160.9 21.0  58d  72
2024 11 19 11  03 55 38.885   +00 46 12.62  .06959 1.0542 160.8 21.0  58d  72
2024 11 19 12  03 56 01.052   +00 41 11.03  .06961 1.0541 160.7 21.0  58d  72
2024 11 19 13  03 56 23.201   +00 36 09.73  .06964 1.0541 160.6 21.0  58d  72
2024 11 19 14  03 56 45.333   +00 31 08.71  .06966 1.0541 160.5 21.0  58d  72
2024 11 19 15  03 57 07.448   +00 26 07.98  .06969 1.0541 160.4 21.0  58d  72
2024 11 19 16  03 57 29.545   +00 21 07.53  .06971 1.0540 160.3 21.1  58d  72
2024 11 19 17  03 57 51.624   +00 16 07.38  .06973 1.0540 160.2 21.1  58d  72
2024 11 19 18  03 58 13.686   +00 11 07.53  .06976 1.0540 160.1 21.1  58d  72
2024 11 19 19  03 58 35.730   +00 06 07.99  .06979 1.0540 160.0 21.1  58d  72
2024 11 19 20  03 58 57.756   +00 01 08.75  .06981 1.0540 159.9 21.1  58d  72
2024 11 19 21  03 59 19.764   -00 03 50.18  .06984 1.0539 159.8 21.1  58d  72
2024 11 19 22  03 59 41.753   -00 08 48.79  .06986 1.0539 159.7 21.1  58d  72
2024 11 19 23  04 00 03.724   -00 13 47.09  .06989 1.0539 159.6 21.1  58d  72
2024 11 20 00  04 00 25.676   -00 18 45.06  .06992 1.0539 159.5 21.1  58d  72
2024 11 20 01  04 00 47.609   -00 23 42.70  .06995 1.0538 159.4 21.1  58d  72
2024 11 20 02  04 01 09.524   -00 28 40.01  .06997 1.0538 159.3 21.1  58d  72
2024 11 20 03  04 01 31.419   -00 33 36.99  .07000 1.0538 159.2 21.1  58d  72
2024 11 20 04  04 01 53.295   -00 38 33.62  .07003 1.0538 159.1 21.1  58d  72
2024 11 20 05  04 02 15.152   -00 43 29.91  .07006 1.0538 159.0 21.1  58d  72
2024 11 20 06  04 02 36.989   -00 48 25.86  .07009 1.0537 158.9 21.1  58d  72
2024 11 20 07  04 02 58.807   -00 53 21.45  .07012 1.0537 158.8 21.1  58d  72
2024 11 20 08  04 03 20.605   -00 58 16.69  .07015 1.0537 158.7 21.1  58d  72
2024 11 20 09  04 03 42.383   -01 03 11.57  .07018 1.0537 158.6 21.1  58d  72
2024 11 20 10  04 04 04.141   -01 08 06.09  .07021 1.0536 158.5 21.1  58d  72
2024 11 20 11  04 04 25.879   -01 13 00.24  .07024 1.0536 158.4 21.1  58d  72